CZ-3B DEB, 40848

Orbit data source: Space-Track

CZ-3B DEB, 40848 is space debris in HEO originally from a launch on Mon, 19 Dec 2011 UTC launched from the Xichang Space Center, China (XSC). Debris objects in space refer to the collection of defunct objects orbiting the Earth. Examples of debris include non-operational satellites, rocket bodies, and fragments generated from explosions, collisions, or faulty payload assembly.

Loading next visibility...
Identifier
40848, 2011-077AD
Orbit
HEO
Country
Flag of CNCN / PRC
Related business
Manufacturer
CALT
Mission
Spacecraft
Bus & Motor
Unknown
Mass
Unknown
Launch date (UTC)
2011-12-19 (15 years ago)
Launch vehicle
Unknown
Launch site
Xichang Space Center, China (XSC)
Object type
Payload
Rocket body
Debris
Shape & HBR
Unknown shape, 0.4 m
Radar Cross Section
Medium (>0.1 m² and <1 m²)

Expand to show TLE details & history
Last TLE update: 15 hours ago

TLE from 15 hours ago
0 CZ-3B DEB
1 40848U 11077AD  26256.43166247 -.00000515  00000-0 -11911-1 0  9991
2 40848  26.9786 339.6577 7370263  54.4676 353.3979  1.90964989 80770
Epoch: 2026-09-13T10:21Z
TLE epoch observation values (Epoch: 2026-09-13T10:21:35.637Z)
Latitude
-0.00005°
Longitude
-168.12792°
Altitude
2,380.545 km
Speed
8.746 km/s
True Right ascension
22h 38m 47s
True Declination
0° 00' 00"
Sunlit
Object was in full shadow at epoch
Visualization orbit readout
Latitude
Unknown
Longitude
Unknown
Altitude
Unknown
Speed
Unknown
Apparent Right ascension
Unknown
Apparent Declination
Unknown
Sunlit
N/A
Visualization observer readout
Local Sidereal Time
18:22:39
Azimuth
Unknown
Elevation
Unknown
Doppler factor
Unknown
Orbital elements
Apogee altitude
41,297.467 km
Perigee altitude
839.618 km
Semi-major axis
27,446.679 km
Eccentricity
0.73703
Inclination
26.9786°
RAAN
339.6577°
Arg. of periapsis
54.4676°
True anomaly
304.12687°
Mean anomaly
353.3979°
Eccentric anomaly
336.68331°
Mean motion
0.47732 °/min
Orbital period
754.21 mins
BSTAR
-0.011911
Loading maneuver chart data...
Computing Atmospheric mass density...
Loading historical data...
Loading historical data...
Loading historical data...
Loading historical data...
Loading historical data...
Loading historical data...
Loading historical data...

Documentation

Showing up to 5 results
|